Regional Weather Roundup
Issued by NWS

Home | Current Version | Previous Version | Text Only | Print | Product List | Glossary On
Versions: 1 2 3 4 5 6 7 8 9 10 11 12 13 14 15 16 17 18 19 20 21 22 23 24 25 26 27 28 29 30 31 32 33 34 35 36 37 38 39 40 41 42 43 44 45 46 47 48 49 50
000
ASUS46 KPQR 080010
RWROR

OREGON REGIONAL WEATHER ROUNDUP
NATIONAL WEATHER SERVICE PORTLAND OR
400 PM PST SUN FEB 07 2016

NOTE: "FAIR" INDICATES FEW OR NO CLOUDS BELOW 12,000 FEET WITH
NO SIGNIFICANT WEATHER AND/OR OBSTRUCTIONS TO VISIBILITY.

ORZ001>013-080100-
NORTHWEST OREGON


CITY           SKY/WX    TMP DP  RH WIND       PRES   REMARKS
ASTORIA        SUNNY     60  50  69 NE6       30.43S
6HR MIN TEMP:  50; 6HR MAX TEMP:  62;

NEWPORT        SUNNY     63  50  63 E8        30.41S
PORTLAND       PTSUNNY   61  42  49 CALM      30.46S
6HR MIN TEMP:  49; 6HR MAX TEMP:  62;

VANCOUVER WA   SUNNY     59  44  57 W3        30.46S
6HR MIN TEMP:  48; 6HR MAX TEMP:  60;

SCAPPOOSE      SUNNY     61  45  55 SE3       30.45F
6HR MIN TEMP:  47; 6HR MAX TEMP:  61;

HILLSBORO      SUNNY     59  48  67 NW5       30.45F
6HR MIN TEMP:  45; 6HR MAX TEMP:  59;

AURORA         MOSUNNY   62  43  49 N9        30.45S
6HR MIN TEMP:  49; 6HR MAX TEMP:  63;

MCMINNVILLE    SUNNY     63  48  58 N6        30.45S
6HR MIN TEMP:  48; 6HR MAX TEMP:  63;

SALEM          SUNNY     60  47  61 N5        30.43F
6HR MIN TEMP:  47; 6HR MAX TEMP:  61;

CORVALLIS      CLOUDY    50  46  87 SW3       30.46F
EUGENE         CLOUDY    48  45  89 N5        30.46R FOG
6HR MIN TEMP:  46; 6HR MAX TEMP:  48;

$$

ORZ021-028-080100-
SOUTHWEST OREGON


CITY           SKY/WX    TMP DP  RH WIND       PRES   REMARKS
NORTH BEND     SUNNY     72  55  56 E9        30.34S
6HR MIN TEMP:  55; 6HR MAX TEMP:  73;

BROOKINGS      SUNNY     74  56  53 CALM      30.28F
ROSEBURG       SUNNY     59  50  72 CALM      30.41F
6HR MIN TEMP:  49; 6HR MAX TEMP:  59;

SEXTON SUMMIT  LGT RAIN  57  41  55 E9G18     30.43S
6HR MIN TEMP:  52; 6HR MAX TEMP:  59; 6HR PCP:  0.91;

MEDFORD        SUNNY     64  44  48 CALM      30.40F
6HR MIN TEMP:  45; 6HR MAX TEMP:  65;

$$

ORZ014>016-041-080100-
COLUMBIA GORGE


CITY           SKY/WX    TMP DP  RH WIND       PRES   REMARKS
TROUTDALE      SUNNY     57  38  48 E20       30.45F
6HR MIN TEMP:  50; 6HR MAX TEMP:  58;

THE DALLES     SUNNY     55  36  48 E6        30.58S
6HR MIN TEMP:  44; 6HR MAX TEMP:  56;

$$

ORZ029>031-041-044-049-050-061>064-502-503-505>511-080100-
EASTERN OREGON


CITY           SKY/WX    TMP DP  RH WIND       PRES   REMARKS
REDMOND        SUNNY     62  38  40 NE7       30.51R
6HR MIN TEMP:  43; 6HR MAX TEMP:  63;

BEND           SUNNY     61  37  41 CALM      30.52R
PRINEVILLE     SUNNY     59  37  44 SE7       30.53R
KLAMATH FALLS  SUNNY     51  39  63 NW10      30.51S
6HR MIN TEMP:  37; 6HR MAX TEMP:  54;

LAKEVIEW       SUNNY     50  34  53 CALM      30.56R
HERMISTON      MOSUNNY   50  36  58 NE13      30.60R
6HR MIN TEMP:  42; 6HR MAX TEMP:  52;

PENDLETON      CLEAR     51  36  56 NE8       30.58R
6HR MIN TEMP:  42; 6HR MAX TEMP:  54;

JOHN DAY       SUNNY     57  32  39 CALM      30.55S
MEACHAM        CLEAR     46  31  55 CALM      30.55R
6HR MIN TEMP:  38; 6HR MAX TEMP:  52;

LA GRANDE      CLEAR     46  28  49 SW14      30.58R
6HR MIN TEMP:  37; 6HR MAX TEMP:  50;

BAKER CITY     CLEAR     36  30  79 SW3       30.61S
6HR MIN TEMP:  26; 6HR MAX TEMP:  37;

BURNS          SUNNY     39  31  72 E5        30.59R
6HR MIN TEMP:  28; 6HR MAX TEMP:  43;

ROME             N/A     53  36  52 NE6       30.56R
6HR MIN TEMP:  43; 6HR MAX TEMP:  55;

ONTARIO        CLEAR     45  32  60 N7        30.66R
6HR MIN TEMP:  34; 6HR MAX TEMP:  46;

$$



USA.gov is the U.S. government's official web portal to all federal, state and local government web resources and services.